Time,TemperatureF,DewpointF,PressureIn,WindDirection,WindDirectionDegrees,WindSpeedMPH,WindSpeedGustMPH,Humidity,HourlyPrecipIn,Conditions,Clouds,dailyrainin,SolarRadiationWatts/m^2,SoftwareType,DateUTC
2013-01-02 00:12:00,33.0,29.0,-100.00,NNE,18,1.0,6.0,85,0.00,,,-99.99,0.000000,,2013-01-02 09:12:00,
2013-01-02 00:22:00,33.0,29.0,-100.00,NNE,18,1.0,6.0,85,0.00,,,-99.99,0.000000,,2013-01-02 09:22:00,
2013-01-02 00:32:00,33.0,29.0,-100.00,NNE,18,1.0,6.0,85,0.00,,,-99.99,0.000000,,2013-01-02 09:32:00,
2013-01-02 00:42:00,33.0,29.0,-100.00,NNE,18,1.0,6.0,85,0.00,,,-99.99,0.000000,,2013-01-02 09:42:00,
2013-01-02 00:52:00,33.0,29.0,-100.00,NNE,18,1.0,6.0,85,0.00,,,-99.99,0.000000,,2013-01-02 09:52:00,
2013-01-02 01:12:00,34.0,30.0,-100.00,ESE,116,2.0,13.0,85,0.00,,,0.01,0.000000,,2013-01-02 10:12:00,
2013-01-02 01:22:00,34.0,30.0,-100.00,ESE,116,2.0,13.0,85,0.00,,,0.01,0.000000,,2013-01-02 10:22:00,
2013-01-02 01:32:00,34.0,30.0,-100.00,ESE,116,2.0,13.0,85,0.00,,,0.01,0.000000,,2013-01-02 10:32:00,
2013-01-02 01:42:00,34.0,30.0,-100.00,ESE,116,2.0,13.0,85,0.00,,,0.01,0.000000,,2013-01-02 10:42:00,
2013-01-02 01:52:00,34.0,30.0,-100.00,ESE,116,2.0,13.0,85,0.00,,,0.01,0.000000,,2013-01-02 10:52:00,
2013-01-02 02:12:00,32.0,30.0,-100.00,North,10,3.0,6.0,91,0.00,,,0.00,0.000000,,2013-01-02 11:12:00,
2013-01-02 02:22:00,32.0,30.0,-100.00,North,10,3.0,6.0,91,0.00,,,0.00,0.000000,,2013-01-02 11:22:00,
2013-01-02 02:32:00,32.0,30.0,-100.00,North,10,3.0,6.0,91,0.00,,,0.00,0.000000,,2013-01-02 11:32:00,
2013-01-02 02:42:00,32.0,30.0,-100.00,North,10,3.0,6.0,91,0.00,,,0.00,0.000000,,2013-01-02 11:42:00,
2013-01-02 02:52:00,32.0,30.0,-100.00,North,10,3.0,6.0,91,0.00,,,0.00,0.000000,,2013-01-02 11:52:00,
2013-01-02 03:22:00,33.0,28.0,-100.00,ESE,109,5.0,11.0,81,0.00,,,0.00,0.000000,,2013-01-02 12:22:00,
2013-01-02 03:32:00,33.0,28.0,-100.00,ESE,109,5.0,11.0,81,0.00,,,0.00,0.000000,,2013-01-02 12:32:00,
2013-01-02 03:42:00,33.0,28.0,-100.00,ESE,109,5.0,11.0,81,0.00,,,0.00,0.000000,,2013-01-02 12:42:00,
2013-01-02 03:52:00,33.0,28.0,-100.00,ESE,109,5.0,11.0,81,0.00,,,0.00,0.000000,,2013-01-02 12:52:00,
2013-01-02 04:12:00,32.0,32.0,-100.00,ESE,114,4.0,11.0,98,0.00,,,0.00,0.000000,,2013-01-02 13:12:00,
2013-01-02 04:22:00,32.0,32.0,-100.00,ESE,114,4.0,11.0,98,0.00,,,0.00,0.000000,,2013-01-02 13:22:00,
2013-01-02 04:32:00,32.0,32.0,-100.00,ESE,114,4.0,11.0,98,0.00,,,0.00,0.000000,,2013-01-02 13:32:00,
2013-01-02 04:42:00,32.0,32.0,-100.00,ESE,114,4.0,11.0,98,0.00,,,0.00,0.000000,,2013-01-02 13:42:00,
2013-01-02 04:52:00,32.0,32.0,-100.00,ESE,114,4.0,11.0,98,0.00,,,0.00,0.000000,,2013-01-02 13:52:00,
2013-01-02 05:12:00,32.0,29.0,-100.00,SSW,208,1.0,7.0,90,0.00,,,0.00,0.000000,,2013-01-02 14:12:00,
2013-01-02 05:22:00,32.0,29.0,-100.00,SSW,208,1.0,7.0,90,0.00,,,0.00,0.000000,,2013-01-02 14:22:00,
2013-01-02 05:32:00,32.0,29.0,-100.00,SSW,208,1.0,7.0,90,0.00,,,0.00,0.000000,,2013-01-02 14:32:00,
2013-01-02 05:42:00,32.0,29.0,-100.00,SSW,208,1.0,7.0,90,0.00,,,0.00,0.000000,,2013-01-02 14:42:00,
2013-01-02 05:53:00,32.0,29.0,-100.00,SSW,208,1.0,7.0,90,0.00,,,0.00,0.000000,,2013-01-02 14:53:00,
2013-01-02 06:12:00,31.0,31.0,-100.00,North,8,1.0,6.0,100,0.00,,,0.00,0.000000,,2013-01-02 15:12:00,
2013-01-02 06:22:00,31.0,31.0,-100.00,North,8,1.0,6.0,100,0.00,,,0.00,0.000000,,2013-01-02 15:22:00,
2013-01-02 06:33:00,31.0,31.0,-100.00,North,8,1.0,6.0,100,0.00,,,0.00,0.000000,,2013-01-02 15:33:00,
2013-01-02 06:42:00,31.0,31.0,-100.00,North,8,1.0,6.0,100,0.00,,,0.00,0.000000,,2013-01-02 15:42:00,
2013-01-02 06:52:00,31.0,31.0,-100.00,North,8,1.0,6.0,100,0.00,,,0.00,0.000000,,2013-01-02 15:52:00,
2013-01-02 07:12:00,32.0,32.0,-100.00,North,351,1.0,6.0,100,0.00,,,-99.99,0.000000,,2013-01-02 16:12:00,
2013-01-02 07:22:00,32.0,32.0,-100.00,North,351,1.0,6.0,100,0.00,,,-99.99,0.000000,,2013-01-02 16:22:00,
2013-01-02 07:33:00,32.0,32.0,-100.00,North,351,1.0,6.0,100,0.00,,,-99.99,0.000000,,2013-01-02 16:33:00,
2013-01-02 07:42:00,32.0,32.0,-100.00,North,351,1.0,6.0,100,0.00,,,-99.99,0.000000,,2013-01-02 16:42:00,
2013-01-02 07:53:00,32.0,32.0,-100.00,North,351,1.0,6.0,100,0.00,,,-99.99,0.000000,,2013-01-02 16:53:00,
2013-01-02 08:12:00,32.0,32.0,-100.00,NW,325,1.0,4.0,100,0.00,,,0.00,0.000000,,2013-01-02 17:12:00,
2013-01-02 08:22:00,32.0,32.0,-100.00,NW,325,1.0,4.0,100,0.00,,,0.00,0.000000,,2013-01-02 17:22:00,
2013-01-02 08:33:00,32.0,32.0,-100.00,NW,325,1.0,4.0,100,0.00,,,0.00,0.000000,,2013-01-02 17:33:00,
2013-01-02 08:42:00,32.0,32.0,-100.00,NW,325,1.0,4.0,100,0.00,,,0.00,0.000000,,2013-01-02 17:42:00,
2013-01-02 08:53:00,32.0,32.0,-100.00,NW,325,1.0,4.0,100,0.00,,,0.00,0.000000,,2013-01-02 17:53:00,
2013-01-02 09:12:00,31.0,31.0,-100.00,NW,326,2.0,4.0,100,0.00,,,0.00,0.000000,,2013-01-02 18:12:00,
2013-01-02 09:22:00,31.0,31.0,-100.00,NW,326,2.0,4.0,100,0.00,,,0.00,0.000000,,2013-01-02 18:22:00,
2013-01-02 09:33:00,31.0,31.0,-100.00,NW,326,2.0,4.0,100,0.00,,,0.00,0.000000,,2013-01-02 18:33:00,
2013-01-02 09:42:00,31.0,31.0,-100.00,NW,326,2.0,4.0,100,0.00,,,0.00,0.000000,,2013-01-02 18:42:00,
2013-01-02 09:52:00,31.0,31.0,-100.00,NW,326,2.0,4.0,100,0.00,,,0.00,0.000000,,2013-01-02 18:52:00,
2013-01-02 10:12:00,31.0,31.0,-100.00,NNW,334,2.0,4.0,100,0.00,,,0.00,0.000000,,2013-01-02 19:12:00,
2013-01-02 10:22:00,31.0,31.0,-100.00,NNW,334,2.0,4.0,100,0.00,,,0.00,0.000000,,2013-01-02 19:22:00,
2013-01-02 10:32:00,31.0,31.0,-100.00,NNW,334,2.0,4.0,100,0.00,,,0.00,0.000000,,2013-01-02 19:32:00,
2013-01-02 10:42:00,31.0,31.0,-100.00,NNW,334,2.0,4.0,100,0.00,,,0.00,0.000000,,2013-01-02 19:42:00,
2013-01-02 10:52:00,31.0,31.0,-100.00,NNW,334,2.0,4.0,100,0.00,,,0.00,0.000000,,2013-01-02 19:52:00,
2013-01-02 11:12:00,31.0,31.0,-100.00,North,354,0.0,5.0,100,0.00,,,0.00,3.000000,,2013-01-02 20:12:00,
2013-01-02 11:22:00,31.0,31.0,-100.00,North,354,0.0,5.0,100,0.00,,,0.00,3.000000,,2013-01-02 20:22:00,
2013-01-02 11:33:00,31.0,31.0,-100.00,North,354,0.0,5.0,100,0.00,,,0.00,3.000000,,2013-01-02 20:33:00,
2013-01-02 11:42:00,31.0,31.0,-100.00,North,354,0.0,5.0,100,0.00,,,0.00,3.000000,,2013-01-02 20:42:00,
2013-01-02 11:53:00,31.0,31.0,-100.00,North,354,0.0,5.0,100,0.00,,,0.00,3.000000,,2013-01-02 20:53:00,
2013-01-02 12:12:00,32.0,32.0,-100.00,North,6,3.0,6.0,99,0.00,,,0.00,7.000000,,2013-01-02 21:12:00,
2013-01-02 12:22:00,32.0,32.0,-100.00,North,6,3.0,6.0,99,0.00,,,0.00,7.000000,,2013-01-02 21:22:00,
2013-01-02 12:32:00,32.0,32.0,-100.00,North,6,3.0,6.0,99,0.00,,,0.00,7.000000,,2013-01-02 21:32:00,
2013-01-02 12:42:00,32.0,32.0,-100.00,North,6,3.0,6.0,99,0.00,,,0.00,7.000000,,2013-01-02 21:42:00,
2013-01-02 12:52:00,32.0,32.0,-100.00,North,6,3.0,6.0,99,0.00,,,0.00,7.000000,,2013-01-02 21:52:00,
2013-01-02 13:12:00,34.0,33.0,-100.00,NNE,32,3.0,6.0,97,0.00,,,0.00,26.000000,,2013-01-02 22:12:00,
2013-01-02 13:22:00,34.0,33.0,-100.00,NNE,32,3.0,6.0,97,0.00,,,0.00,26.000000,,2013-01-02 22:22:00,
2013-01-02 13:32:00,34.0,33.0,-100.00,NNE,32,3.0,6.0,97,0.00,,,0.00,26.000000,,2013-01-02 22:32:00,
2013-01-02 13:42:00,34.0,33.0,-100.00,NNE,32,3.0,6.0,97,0.00,,,0.00,26.000000,,2013-01-02 22:42:00,
2013-01-02 13:52:00,34.0,33.0,-100.00,NNE,32,3.0,6.0,97,0.00,,,0.00,26.000000,,2013-01-02 22:52:00,
2013-01-02 14:12:00,34.0,31.0,-100.00,NE,46,4.0,9.0,88,0.00,,,0.00,98.000000,,2013-01-02 23:12:00,
2013-01-02 14:22:00,34.0,31.0,-100.00,NE,46,4.0,9.0,88,0.00,,,0.00,98.000000,,2013-01-02 23:22:00,
2013-01-02 14:33:00,34.0,31.0,-100.00,NE,46,4.0,9.0,88,0.00,,,0.00,98.000000,,2013-01-02 23:33:00,
2013-01-02 14:42:00,34.0,31.0,-100.00,NE,46,4.0,9.0,88,0.00,,,0.00,98.000000,,2013-01-02 23:42:00,
2013-01-02 14:52:00,34.0,31.0,-100.00,NE,46,4.0,9.0,88,0.00,,,0.00,98.000000,,2013-01-02 23:52:00,
2013-01-02 15:22:00,34.0,28.0,-100.00,NNE,18,2.0,7.0,80,0.00,,,0.00,124.000000,,2013-01-03 00:22:00,
2013-01-02 15:37:00,34.0,28.0,-100.00,NNE,18,2.0,7.0,80,0.00,,,0.00,124.000000,,2013-01-03 00:37:00,
2013-01-02 15:52:00,34.0,28.0,-100.00,NNE,18,2.0,7.0,80,0.00,,,0.00,124.000000,,2013-01-03 00:52:00,
2013-01-02 16:22:00,33.0,30.0,-100.00,ENE,75,5.0,12.0,89,0.00,,,0.00,27.000000,,2013-01-03 01:22:00,
2013-01-02 16:32:00,33.0,30.0,-100.00,ENE,75,5.0,12.0,89,0.00,,,0.00,27.000000,,2013-01-03 01:32:00,
2013-01-02 16:42:00,33.0,30.0,-100.00,ENE,75,5.0,12.0,89,0.00,,,0.00,27.000000,,2013-01-03 01:42:00,
2013-01-02 16:52:00,33.0,30.0,-100.00,ENE,75,5.0,12.0,89,0.00,,,0.00,27.000000,,2013-01-03 01:52:00,
2013-01-02 17:12:00,33.0,29.0,-100.00,East,96,5.0,12.0,84,0.00,,,0.00,3.000000,,2013-01-03 02:12:00,
2013-01-02 17:22:00,33.0,29.0,-100.00,East,96,5.0,12.0,84,0.00,,,0.00,3.000000,,2013-01-03 02:22:00,
2013-01-02 17:33:00,33.0,29.0,-100.00,East,96,5.0,12.0,84,0.00,,,0.00,3.000000,,2013-01-03 02:33:00,
2013-01-02 17:42:00,33.0,29.0,-100.00,East,96,5.0,12.0,84,0.00,,,0.00,3.000000,,2013-01-03 02:42:00,
2013-01-02 17:52:00,33.0,29.0,-100.00,East,96,5.0,12.0,84,0.00,,,0.00,3.000000,,2013-01-03 02:52:00,
2013-01-02 18:12:00,32.0,24.0,-100.00,North,6,2.0,9.0,73,0.00,,,0.00,0.000000,,2013-01-03 03:12:00,
2013-01-02 18:22:00,32.0,24.0,-100.00,North,6,2.0,9.0,73,0.00,,,0.00,0.000000,,2013-01-03 03:22:00,
2013-01-02 18:46:00,32.0,24.0,-100.00,North,6,2.0,9.0,73,0.00,,,0.00,0.000000,,2013-01-03 03:46:00,
2013-01-02 18:52:00,32.0,24.0,-100.00,North,6,2.0,9.0,73,0.00,,,0.00,0.000000,,2013-01-03 03:52:00,
2013-01-02 19:12:00,34.0,29.0,-100.00,NE,50,2.0,12.0,82,0.00,,,0.00,0.000000,,2013-01-03 04:12:00,
2013-01-02 19:22:00,34.0,29.0,-100.00,NE,50,2.0,12.0,82,0.00,,,0.00,0.000000,,2013-01-03 04:22:00,
2013-01-02 19:32:00,34.0,29.0,-100.00,NE,50,2.0,12.0,82,0.00,,,0.00,0.000000,,2013-01-03 04:32:00,
2013-01-02 19:42:00,34.0,29.0,-100.00,NE,50,2.0,12.0,82,0.00,,,0.00,0.000000,,2013-01-03 04:42:00,
2013-01-02 19:52:00,34.0,29.0,-100.00,NE,50,2.0,12.0,82,0.00,,,0.00,0.000000,,2013-01-03 04:52:00,
2013-01-02 20:22:00,33.0,31.0,-100.00,NNE,14,4.0,11.0,94,0.00,,,0.00,0.000000,,2013-01-03 05:22:00,
2013-01-02 20:33:00,33.0,31.0,-100.00,NNE,14,4.0,11.0,94,0.00,,,0.00,0.000000,,2013-01-03 05:33:00,
2013-01-02 20:42:00,33.0,31.0,-100.00,NNE,14,4.0,11.0,94,0.00,,,0.00,0.000000,,2013-01-03 05:42:00,
2013-01-02 20:52:00,33.0,31.0,-100.00,NNE,14,4.0,11.0,94,0.00,,,0.00,0.000000,,2013-01-03 05:52:00,
2013-01-02 21:22:00,32.0,31.0,-100.00,NNE,14,5.0,11.0,96,0.00,,,0.00,0.000000,,2013-01-03 06:22:00,
2013-01-02 21:32:00,32.0,31.0,-100.00,NNE,14,5.0,11.0,96,0.00,,,0.00,0.000000,,2013-01-03 06:32:00,
2013-01-02 21:42:00,32.0,31.0,-100.00,NNE,14,5.0,11.0,96,0.00,,,0.00,0.000000,,2013-01-03 06:42:00,
2013-01-02 21:52:00,32.0,31.0,-100.00,NNE,14,5.0,11.0,96,0.00,,,0.00,0.000000,,2013-01-03 06:52:00,
2013-01-02 22:22:00,34.0,30.0,-100.00,ENE,60,5.0,11.0,86,0.00,,,0.00,0.000000,,2013-01-03 07:22:00,
2013-01-02 22:32:00,34.0,30.0,-100.00,ENE,60,5.0,11.0,86,0.00,,,0.00,0.000000,,2013-01-03 07:32:00,
2013-01-02 22:42:00,34.0,30.0,-100.00,ENE,60,5.0,11.0,86,0.00,,,0.00,0.000000,,2013-01-03 07:42:00,
2013-01-02 22:52:00,34.0,30.0,-100.00,ENE,60,5.0,11.0,86,0.00,,,0.00,0.000000,,2013-01-03 07:52:00,
2013-01-02 23:22:00,34.0,30.0,-100.00,ENE,62,8.0,19.0,85,0.00,,,0.00,0.000000,,2013-01-03 08:22:00,
2013-01-02 23:32:00,34.0,30.0,-100.00,ENE,62,8.0,19.0,85,0.00,,,0.00,0.000000,,2013-01-03 08:32:00,
2013-01-02 23:42:00,34.0,30.0,-100.00,ENE,62,8.0,19.0,85,0.00,,,0.00,0.000000,,2013-01-03 08:42:00,
2013-01-02 23:52:00,34.0,30.0,-100.00,ENE,62,8.0,19.0,85,0.00,,,0.00,0.000000,,2013-01-03 08:52:00,